Location: Recife
(8.0585°S, 34.8848°W)
Time: 00:43:26
(UTC-03:00)

A-11 Canister half - Pass Details

Date: 16 April 2026
Orbit: 1515 x 1684 km, 47.2° (Epoch: 11 May)

Event Time Altitude Azimuth Distance (km) Brightness Sun altitude
Exits shadow 01:44:26 14° 32° (NNE) 3,370 11.0 -54.2°
Drops below altitude 10° 01:45:21 10° 32° (NNE) 3,663 11.2 -53.9°
Sets 01:48:24 0° 35° (NE) 4,647 11.9 -53.2°
